Sussex, NJ

3:25 PM EST on January 23, 2017 (GMT -0500)
Sussex

Weather History for KFWN - October, 2013

Change the Weather History Date:

Monday, October 21, 2013

  Actual Average Record
Temperature  
Mean Temperature 48 °F -  
Max Temperature 66 °F 59 °F 79 °F (1949)
Min Temperature 32 °F 33 °F 18 °F (1972)
Degree Days  
Heating Degree Days 17    
Moisture  
Dew Point 36 °F    
Average Humidity 71    
Maximum Humidity 100    
Minimum Humidity 32    
Precipitation  
Precipitation 0.00 in - - ()
Sea Level Pressure  
Sea Level Pressure 30.07 in    
Wind  
Wind Speed 2 mph (SW)    
Max Wind Speed 10 mph    
Max Gust Speed 16 mph    
Visibility 9 miles    
Events      
Averages and records for this station are not official NWS values.
T = Trace of Precipitation, MM = Missing Value Source: NWS Daily Summary

Daily Weather History Graph

Daily Weather History Graph

Search for Another Location

Airport or City:

Trip Planner

Search our weather history database for the weather conditions in past years. The results will help you decide how hot, cold, wet, or windy it might be!

Date:

Astronomy

Oct. 21, 2013 Rise Set
Actual Time 7:17 AM EDT 6:08 PM EDT
Civil Twilight 6:49 AM EDT 6:36 PM EDT
Nautical Twilight 6:16 AM EDT 7:08 PM EDT
Astronomical Twilight 5:44 AM EDT 7:40 PM EDT
Moon 7:57 PM EDT (10/21) 9:51 AM EDT (10/21)
Length of Visible Light 11h 47m
Length of Day
10h 51m
Waning Gibbous, 93% of the Moon is Illuminated
Oct 21
Waning Gibbous
Oct 26
Last Quarter
Nov 3
New
Nov 10
First Quarter
Nov 17
Full

Hourly Weather History & Observations

Time (EDT) Temp. Dew Point Humidity Pressure Visibility Wind Dir Wind Speed Gust Speed Precip Events Conditions
12:53 AM 36.0 °F 34.0 °F 93% 30.08 in 10.0 mi Calm Calm - N/A   Clear
1:53 AM 35.1 °F 33.1 °F 92% 30.09 in 9.0 mi Calm Calm - N/A   Clear
2:53 AM 33.1 °F 32.0 °F 96% 30.10 in 7.0 mi Calm Calm - N/A   Clear
3:53 AM 33.1 °F 32.0 °F 96% 30.10 in 9.0 mi Calm Calm - N/A   Clear
4:53 AM 33.1 °F 32.0 °F 96% 30.12 in 8.0 mi Calm Calm - N/A   Clear
5:53 AM 32.0 °F 30.9 °F 96% 30.12 in 8.0 mi Calm Calm - N/A   Clear
6:53 AM 32.0 °F 30.9 °F 96% 30.13 in 8.0 mi Calm Calm - N/A   Clear
7:53 AM 33.1 °F 32.0 °F 96% 30.15 in 8.0 mi Calm Calm - N/A   Clear
8:53 AM 37.9 °F 37.9 °F 100% 30.16 in 9.0 mi Calm Calm - N/A   Clear
9:53 AM 48.0 °F 42.1 °F 80% 30.15 in 10.0 mi Calm Calm - N/A   Clear
10:53 AM 55.0 °F 41.0 °F 59% 30.13 in 10.0 mi SSW 4.6 mph - N/A   Clear
11:53 AM 61.0 °F 39.9 °F 46% 30.12 in 10.0 mi SW 4.6 mph - N/A   Clear
12:53 PM 63.0 °F 36.0 °F 37% 30.09 in 10.0 mi SW 9.2 mph - N/A   Clear
1:53 PM 64.9 °F 35.1 °F 33% 30.05 in 10.0 mi SW 8.1 mph - N/A   Clear
2:53 PM 64.9 °F 34.0 °F 32% 30.03 in 10.0 mi SW 8.1 mph 16.1 mph N/A   Clear
3:53 PM 64.9 °F 36.0 °F 34% 30.01 in 10.0 mi SW 10.4 mph 16.1 mph N/A   Clear
4:53 PM 63.0 °F 35.1 °F 35% 30.00 in 10.0 mi SSW 4.6 mph - N/A   Clear
5:53 PM 61.0 °F 37.0 °F 41% 30.01 in 10.0 mi SSW 4.6 mph - N/A   Clear
6:53 PM 55.0 °F 37.9 °F 53% 30.02 in 10.0 mi Calm Calm - N/A   Clear
7:53 PM 48.9 °F 39.0 °F 69% 30.02 in 10.0 mi Calm Calm - N/A   Clear
8:53 PM 45.0 °F 39.0 °F 80% 30.01 in 10.0 mi Calm Calm - N/A   Clear
9:53 PM 43.0 °F 37.9 °F 82% 30.01 in 10.0 mi Calm Calm - N/A   Clear
10:53 PM 48.9 °F 39.0 °F 69% 29.99 in 10.0 mi Calm Calm - N/A   Clear
11:53 PM 43.0 °F 37.9 °F 82% 29.98 in 10.0 mi Calm Calm - N/A   Clear